Mobile Downtown, AL

12:34 AM CDT on May 21, 2018 (GMT -0500)
Mobile Downtown

Weather History for KBFM - August, 2014

Change the Weather History Date:

Sunday, August 31, 2014

  Actual Average Record
Temperature  
Mean Temperature 84 °F -  
Max Temperature 91 °F 87 °F 95 °F (1997)
Min Temperature 77 °F 72 °F 69 °F (2015)
Cooling Degree Days 18    
Growing Degree Days 34 (Base 50)    
Moisture  
Dew Point 78 °F    
Average Humidity 84    
Maximum Humidity 100    
Minimum Humidity 61    
Precipitation  
Precipitation 0.01 in - - ()
Sea Level Pressure  
Sea Level Pressure 30.09 in    
Wind  
Wind Speed 4 mph (SSE)    
Max Wind Speed 12 mph    
Max Gust Speed 18 mph    
Visibility 10 miles    
Events Rain    
Averages and records for this station are not official NWS values.
T = Trace of Precipitation, MM = Missing Value Source: NWS Daily Summary

Daily Weather History Graph

Daily Weather History Graph

Search for Another Location

Airport or City:

Astronomy

Aug. 31, 2014 Rise Set
Actual Time 6:28 AM CDT 7:16 PM CDT
Civil Twilight 6:03 AM CDT 7:40 PM CDT
Nautical Twilight 5:34 AM CDT 8:09 PM CDT
Astronomical Twilight 5:04 AM CDT 8:39 PM CDT
Moon 11:49 AM CDT (8/31) 10:57 PM CDT (8/31)
Length of Visible Light 13h 37m
Length of Day
12h 48m
Waxing Crescent, 32% of the Moon is Illuminated
Aug 31
Waxing Crescent
Sep 2
First Quarter
Sep 8
Full
Sep 15
Last Quarter
Sep 24
New

Hourly Weather History & Observations

Time (CDT) Temp. Heat Index Dew Point Humidity Pressure Visibility Wind Dir Wind Speed Gust Speed Precip Events Conditions
12:32 AM 78.1 °F - 78.1 °F 100% 30.09 in 10.0 mi Calm Calm - 0.01 in Rain Rain
12:53 AM 78.1 °F - 77.0 °F 96% 30.08 in 10.0 mi Calm Calm - 0.01 in Rain Rain
1:00 AM 80.1 °F 86.4 °F 78.1 °F 94% 30.08 in 10.0 mi South 5.8 mph - 0.00 in Rain Rain
1:07 AM 81.0 °F 89.2 °F 79.0 °F 94% 30.08 in 10.0 mi South 4.6 mph - 0.00 in Rain Rain
1:30 AM 82.0 °F 91.6 °F 79.0 °F 90% 30.08 in 10.0 mi South 5.8 mph - 0.00 in Rain Rain
1:39 AM 82.0 °F 91.6 °F 79.0 °F 90% 30.07 in 10.0 mi South 8.1 mph - 0.00 in Rain Rain
1:53 AM 82.0 °F 91.6 °F 79.0 °F 90% 30.08 in 10.0 mi SSE 6.9 mph - 0.00 in Rain Rain
2:53 AM 82.0 °F 91.0 °F 78.1 °F 88% 30.07 in 10.0 mi SSE 6.9 mph - 0.00 in Rain Rain
3:53 AM 81.0 °F 88.6 °F 78.1 °F 91% 30.07 in 10.0 mi SSW 3.5 mph - 0.00 in Rain Rain
4:53 AM 79.0 °F - 78.1 °F 97% 30.08 in 10.0 mi Calm Calm - 0.00 in Rain Rain
5:53 AM 77.0 °F - 77.0 °F 100% 30.09 in 9.0 mi Calm Calm - 0.00 in Rain Rain
6:53 AM 77.0 °F - 75.9 °F 96% 30.11 in 6.0 mi Calm Calm - 0.00 in   Clear
7:53 AM 84.0 °F 96.0 °F 79.0 °F 85% 30.11 in 10.0 mi Calm Calm - N/A   Partly Cloudy
8:53 AM 84.9 °F 100.3 °F 81.0 °F 88% 30.12 in 10.0 mi SE 6.9 mph - N/A   Partly Cloudy
9:53 AM 87.1 °F 103.2 °F 80.1 °F 80% 30.13 in 10.0 mi ESE 10.4 mph - N/A   Scattered Clouds
10:53 AM 88.0 °F 101.3 °F 78.1 °F 72% 30.13 in 10.0 mi SE 8.1 mph - N/A   Scattered Clouds
11:53 AM 89.1 °F 103.2 °F 78.1 °F 70% 30.13 in 10.0 mi SE 8.1 mph - N/A   Partly Cloudy
12:53 PM 90.0 °F 100.2 °F 75.0 °F 61% 30.12 in 10.0 mi SSE 8.1 mph - N/A   Scattered Clouds
1:53 PM 90.0 °F 104.5 °F 78.1 °F 68% 30.10 in 10.0 mi South 8.1 mph 17.3 mph N/A   Scattered Clouds
2:53 PM 90.0 °F 104.5 °F 78.1 °F 68% 30.08 in 10.0 mi South 10.4 mph - N/A   Scattered Clouds
3:53 PM 89.1 °F 103.2 °F 78.1 °F 70% 30.07 in 10.0 mi South 10.4 mph 18.4 mph N/A   Scattered Clouds
4:53 PM 88.0 °F 100.2 °F 77.0 °F 70% 30.07 in 10.0 mi SSE 11.5 mph - N/A   Scattered Clouds
5:53 PM 86.0 °F 98.3 °F 78.1 °F 77% 30.07 in 10.0 mi South 8.1 mph - N/A   Partly Cloudy
6:53 PM 84.0 °F 92.6 °F 75.9 °F 76% 30.08 in 10.0 mi Variable 3.5 mph - N/A   Clear
7:53 PM 82.9 °F 90.8 °F 75.9 °F 79% 30.09 in 10.0 mi South 4.6 mph - N/A   Clear
9:53 PM 82.0 °F 90.2 °F 77.0 °F 85% 30.09 in 10.0 mi South 4.6 mph - N/A   Clear
10:53 PM 82.9 °F 91.8 °F 77.0 °F 82% 30.09 in 10.0 mi SSE 3.5 mph - N/A   Clear
11:53 PM 82.9 °F 91.8 °F 77.0 °F 82% 30.08 in 10.0 mi SSE 5.8 mph - N/A   Clear